GOES 1 [-] 1 08366U 75100A 12140.50705269 -.00000246 00000-0 10000-3 0 110 2 08366 13.9738 338.5298 0003090 66.5814 293.3993 1.00260582133656 GOES 2 [-] 1 10061U 77048A 12139.92034270 -.00000339 00000-0 10000-3 0 1775 2 10061 14.6670 347.0553 0011817 291.1199 68.7098 0.99400818 72401 GOES 3 [P] 1 10953U 78062A 12139.61513433 -.00000104 00000-0 10000-3 0 8240 2 10953 14.5625 350.7053 0007491 66.2568 293.7793 1.00266662 77362 GOES 4 [-] 1 11964U 80074A 12139.97110658 -.00000297 00000-0 10000-3 0 4003 2 11964 15.0888 354.3599 0033978 332.2320 27.5502 0.99231516 76613 GOES 5 [-] 1 12472U 81049A 12140.58851697 -.00000224 00000-0 10000-3 0 3116 2 12472 14.5347 4.5817 0003693 70.5320 289.4676 1.00216712 71410 GOES 6 [-] 1 14050U 83041A 12140.58500587 -.00000255 00000-0 10000-3 0 3140 2 14050 14.4105 9.4922 0006635 54.2553 305.7638 1.00247243164519 GOES 7 [-] 1 17561U 87022A 12140.99456085 -.00000278 00000-0 10000-3 0 4912 2 17561 13.8465 26.0100 0005592 350.9611 8.9719 0.99909648 75622 GOES 8 [-] 1 23051U 94022A 12140.16698724 -.00000201 00000-0 10000-3 0 1315 2 23051 8.2565 59.4235 0002559 251.3958 108.4163 0.98905895 73276 GOES 9 [P] 1 23581U 95025A 12140.56690906 -.00000228 00000-0 10000-3 0 4104 2 23581 7.7971 57.6964 0009101 357.8849 1.9430 0.98802657 61979 GOES 10 [-] 1 24786U 97019A 12140.38758356 .00000064 00000-0 10000-3 0 3499 2 24786 6.0289 60.9228 0023172 95.7055 264.3394 0.99122391 55105 GOES 11 [+] 1 26352U 00022A 12140.97480253 .00000039 00000-0 00000+0 0 8000 2 26352 1.1483 124.9367 0005944 321.8845 38.0500 0.99040380 44098 GOES 12 [B] 1 26871U 01031A 12141.41204999 -.00000282 00000-0 10000-3 0 5843 2 26871 2.1994 73.2587 0003917 15.2445 238.6537 1.00270871 39714 GOES 13 [+] 1 29155U 06018A 12141.25891481 -.00000247 00000-0 10000-3 0 757 2 29155 0.2335 250.1852 0005208 177.0448 189.3727 1.00278482 21963 GOES 14 [S] 1 35491U 09033A 12141.47202378 -.00000083 00000-0 00000+0 0 4669 2 35491 0.1516 91.0381 0006331 356.9781 214.8320 1.00272491 10637 GOES 15 [S] 1 36411U 10008A 12141.40947354 .00000093 00000-0 10000-3 0 772 2 36411 0.2034 77.1720 0001369 22.4471 150.8023 1.00271191 8132